Wind_Speed
16 15 13 12 9 7 6 6 7 8 6 8 8 8 7 5 4 2 4 4 2 6 7 3 2 2 1 1 3 4 5 7 7 11 12 10 10 9 14 1 8 11 9 8 8 11 6 3 5 5 6 14 18 23
16 14 12 10 8 6 5 5 6 6 7 7 7 6 5 3 1 3 1 2 3 5 6 8 10 10 7 4 6 2 4 1 4 6 3 5 6 4 13 9 2 4 4 3 5 4 4 4 7 12 13 19 19 20
17 13 10 9 6 4 3 4 5 6 6 7 6 5 4 3 2 5 1 3 5 5 10 10 10 8 8 8 8 4 3 3 1 2 4 2 3 4 9 4 6 4 1 4 8 8 12 14 15 16 18 20 19 18
18 13 10 8 6 5 4 4 4 5 6 6 6 3 3 4 4 4 2 3 2 4 5 4 6 4 5 5 7 11 8 6 6 3 5 2 2 3 3 4 1 4 9 9 15 14 17 14 16 17 18 19 18 16
16 12 10 8 7 6 5 5 5 5 6 6 4 2 1 2 1 2 3 2 3 2 5 3 4 4 3 5 5 6 7 6 4 5 3 2 2 3 2 4 5 1 10 4 4 23 8 19 16 15 16 15 14 13
15 12 9 7 6 6 5 5 6 7 7 5 2 2 2 3 2 1 4 2 4 4 4 2 3 4 1 2 4 4 3 2 3 1 3 3 2 5 3 4 2 5 6 11 23 19 23 21 16 14 15 14 13 12
14 12 10 8 6 5 5 5 5 6 6 5 3 1 1 2 2 1 2 3 6 4 3 3 7 3 1 5 4 3 3 2 1 3 2 2 4 2 1 3 8 11 14 24 25 29 24 15 16 16 15 14 14 13
16 13 11 8 5 4 4 3 4 5 6 4 2 1 1 0 0 1 3 5 6 1 2 3 1 7 2 4 5 4 5 4 5 3 4 3 3 1 4 13 19 23 26 23 15 11 22 22 19 16 15 14 13 11
16 16 14 10 7 4 3 3 5 7 5 2 1 1 2 1 2 2 5 4 2 1 2 2 3 4 3 4 3 5 4 2 2 2 3 1 4 3 14 18 20 21 12 22 23 24 22 21 19 17 15 13 12 11
17 16 15 13 9 5 4 4 5 6 3 2 3 2 3 3 5 3 2 1 1 1 1 2 2 0 4 3 5 6 4 3 1 3 2 3 2 20 18 17 13 18 22 22 25 23 21 20 19 16 14 13 11 10
16 16 14 13 11 6 3 3 4 5 3 3 2 2 3 1 1 2 2 2 1 3 1 2 3 2 4 2 0 1 3 6 5 4 2 3 3 11 14 16 19 20 19 17 19 19 18 18 17 16 14 12 11 10
15 16 12 12 10 7 5 5 4 3 3 2 1 1 1 2 1 2 1 2 2 2 1 3 1 2 1 1 3 1 1 4 4 8 4 4 8 20 18 19 20 16 20 20 20 20 18 17 15 14 13 12 11 10
14 14 10 11 11 9 7 5 3 2 2 0 0 0 2 1 2 2 1 2 1 4 3 4 3 1 2 1 1 2 1 2 7 3 4 4 24 24 23 22 20 20 20 21 20 18 17 16 14 13 13 12 12 11
13 12 6 10 12 8 4 4 3 4 2 1 1 3 2 1 1 4 1 3 4 4 5 4 6 2 2 4 1 1 2 3 4 5 5 11 29 27 25 22 25 22 20 20 19 18 16 14 13 13 12 12 11 11
12 10 5 10 12 8 3 1 1 3 1 1 0 1 1 2 2 2 4 3 4 3 3 3 5 4 3 3 2 3 4 4 3 2 5 27 30 28 27 25 23 24 19 19 17 15 15 14 12 12 11 10 10 9
10 7 4 9 9 9 5 1 1 2 1 1 1 1 0 3 1 1 1 2 4 8 3 4 3 3 3 1 4 1 1 2 3 3 17 31 29 27 25 24 22 21 20 18 16 15 14 12 11 9 9 7 6 4
9 4 10 8 6 6 3 0 2 2 2 2 1 3 3 3 3 2 1 1 0 4 2 1 3 2 1 3 4 0 1 3 4 13 24 28 28 26 25 23 21 20 18 17 15 14 12 11 9 7 6 6 4 1
10 9 9 4 4 3 2 1 2 3 2 3 4 4 2 2 5 3 1 0 3 2 1 2 3 2 1 2 2 2 2 6 12 20 24 24 23 24 24 22 21 19 17 15 13 13 12 10 8 7 7 6 4 3
11 6 4 3 3 2 2 2 2 1 2 2 3 3 4 3 3 3 1 3 3 1 1 1 2 1 2 2 7 9 13 18 20 19 18 18 20 21 21 20 18 18 17 15 13 10 10 11 7 7 7 6 5 4
5 2 3 4 3 2 3 2 2 1 1 2 2 3 3 2 3 3 2 4 3 1 2 1 2 1 4 6 6 9 13 15 18 20 17 15 16 17 17 17 18 17 15 12 9 9 9 10 9 9 7 7 7 6
2 0 1 3 2 2 2 1 1 1 2 2 2 3 5 5 8 8 7 4 2 3 3 5 6 9 13 9 8 11 14 14 13 15 16 15 14 14 14 13 15 14 12 9 9 9 10 10 9 9 8 7 7 8
3 3 2 3 1 2 1 1 1 2 1 2 2 1 1 2 5 6 4 7 4 3 4 9 10 10 6 7 12 14 13 12 14 16 14 14 13 11 11 12 13 10 8 7 9 9 9 9 9 9 9 8 9 9
1 1 2 3 3 2 2 2 1 2 3 2 2 1 2 2 2 1 3 4 4 6 9 10 11 12 13 12 11 15 13 9 11 12 13 11 10 10 10 10 9 9 8 8 9 9 9 9 10 10 9 10 10 11
1 2 2 3 4 3 4 1 0 2 2 1 1 2 2 2 1 1 3 4 9 9 9 11 10 10 10 11 11 10 11 10 11 11 10 11 10 9 7 7 7 8 8 7 8 8 8 9 10 11 13 14 15 17
1 2 2 3 3 4 4 5 4 3 4 2 2 3 2 3 1 1 2 7 11 11 10 9 9 10 11 11 11 10 10 9 9 9 9 7 5 4 7 8 8 8 8 9 10 10 12 13 14 16 17 19 20 21
1 2 2 1 1 2 2 3 4 4 1 2 2 3 3 2 1 0 3 10 12 13 13 12 11 10 8 9 11 9 8 8 7 5 6 8 7 6 6 6 8 10 11 12 14 15 16 17 17 17 16 16 18 18
0 1 2 2 3 3 3 3 3 3 4 3 2 2 2 2 0 3 5 10 12 13 14 12 10 10 10 9 8 7 6 6 7 4 4 5 7 9 8 8 9 8 7 9 11 11 12 12 13 15 16 16 16 16
2 2 3 3 3 3 1 1 2 2 3 2 4 3 2 2 4 3 6 11 10 14 15 12 11 10 9 10 9 8 6 5 6 6 5 3 4 6 8 6 7 12 14 12 12 12 12 13 13 14 14 13 11 8
1 2 3 3 2 2 2 2 2 2 2 4 2 0 1 2 1 3 11 12 14 16 17 14 11 10 10 11 11 10 9 8 7 7 7 6 5 6 7 7 9 9 8 7 8 10 11 12 9 7 6 7 7 7
0 2 3 2 2 1 3 2 2 1 2 1 2 4 4 4 3 6 15 17 16 15 14 11 8 8 9 10 12 13 12 12 10 8 6 6 6 6 6 7 6 5 5 5 6 7 6 3 6 6 7 8 8 8
2 1 2 2 1 1 1 2 2 2 2 2 3 2 5 5 5 7 12 15 15 13 11 10 7 7 7 7 8 11 11 10 9 8 6 4 4 4 4 4 4 4 3 3 3 4 5 5 5 5 5 4 5 4
3 2 3 3 1 1 1 1 2 2 3 3 4 5 5 5 5 8 11 14 14 15 15 13 9 8 7 7 8 10 11 7 8 9 7 6 6 4 4 4 4 4 4 3 3 4 4 4 5 5 5 6 7 8
2 2 3 3 1 1 2 2 2 0 3 4 6 8 8 6 4 4 6 14 13 12 11 9 8 7 8 8 7 9 10 8 9 9 8 8 8 5 4 5 5 6 5 5 5 6 7 7 8 9 10 11 12 14
Wind_Direction
343 339 336 332 327 317 315 316 328 341 338 330 325 323 317 300 295 281 237 197 225 268 276 254 247 226 201 238 301 72 201 202 192 223 219 212 234 189 223 219 181 190 201 203 217 212 189 9 186 238 82 133 147 153
348 345 341 340 339 332 331 335 351 355 353 344 339 340 338 325 296 156 176 188 311 267 274 278 257 250 241 266 298 295 349 100 14 246 245 264 207 195 204 193 179 192 341 86 358 57 69 93 107 108 121 127 132 135
355 353 351 354 359 3 358 357 0 359 355 353 355 5 24 43 97 157 177 289 324 285 275 252 244 247 239 242 228 269 125 9 144 312 330 335 234 302 201 142 128 115 93 106 167 91 100 101 106 112 117 118 122 124
6 11 10 12 21 21 11 12 10 4 358 353 355 6 70 98 108 167 242 305 336 292 274 152 213 215 211 206 219 231 265 304 303 237 236 258 186 299 55 83 153 44 156 122 102 124 113 110 115 119 116 115 112 108
11 18 23 26 26 21 11 6 3 1 1 349 352 1 81 100 138 222 247 238 16 330 324 299 210 187 204 232 245 235 236 264 242 202 222 110 109 181 104 137 118 204 152 198 162 161 139 133 127 124 116 108 103 102
11 12 12 14 15 14 14 15 16 21 26 19 25 119 83 54 71 25 216 278 309 326 284 232 110 153 179 199 176 190 208 199 227 271 105 111 104 274 173 90 64 152 139 91 124 131 130 128 122 115 108 102 95 95
9 10 9 8 9 19 25 23 27 30 24 30 55 105 59 353 340 239 356 301 322 311 266 254 168 147 114 155 150 139 143 125 358 125 74 103 109 334 331 103 121 120 127 126 130 130 123 125 121 116 110 105 102 96
12 9 5 2 357 351 353 0 360 356 357 348 331 254 247 75 85 357 315 320 354 268 267 282 158 170 38 178 162 161 157 159 42 78 129 76 109 69 79 128 123 120 121 126 138 133 128 125 122 119 116 113 102 97
5 5 3 354 342 323 306 303 323 339 353 38 61 303 291 270 240 263 313 316 354 182 324 291 303 108 352 165 161 160 179 89 86 91 67 360 347 27 146 142 136 135 130 127 119 119 123 121 120 118 114 109 102 88
354 354 354 355 344 325 305 292 309 326 301 259 277 250 231 213 302 289 313 214 243 223 300 18 340 254 326 204 144 164 150 136 108 73 124 99 40 123 138 133 135 133 132 133 128 128 128 123 122 118 111 104 98 92
348 349 350 355 359 345 321 327 333 334 255 227 229 241 268 281 10 241 217 234 206 182 27 16 20 340 7 271 142 326 162 161 172 153 197 126 134 154 138 128 128 127 127 128 127 126 128 126 124 120 113 104 95 87
345 345 345 352 352 349 337 325 317 329 243 237 231 302 351 327 280 259 136 146 337 50 35 320 358 311 338 347 268 358 207 186 148 167 140 122 146 155 142 137 134 129 130 127 127 125 124 120 118 114 108 101 93 86
338 341 336 355 354 346 339 341 336 235 217 127 114 151 331 303 349 277 195 103 278 342 10 323 214 257 250 241 278 312 212 72 141 202 146 122 151 157 153 147 137 134 131 129 126 124 121 117 114 111 105 97 92 87
331 337 324 348 355 349 346 30 79 116 100 234 238 3 272 215 56 88 224 313 292 272 300 263 243 248 213 207 81 242 78 193 191 172 168 147 158 155 153 149 144 142 141 136 135 131 128 121 119 114 109 107 103 95
323 329 293 338 345 349 339 335 105 108 127 129 307 15 27 13 271 188 206 247 249 266 261 228 235 238 190 170 211 169 186 192 218 104 126 150 154 157 157 154 155 152 152 149 147 140 137 142 142 131 124 116 106 98
321 313 298 327 326 339 354 167 87 104 95 124 84 236 95 243 30 296 271 249 229 219 263 243 269 209 188 234 200 161 211 158 96 110 143 149 155 158 161 163 164 161 162 157 157 160 152 158 160 144 137 134 122 107
322 279 301 318 312 333 335 108 159 214 187 113 7 355 316 315 299 1 342 306 49 174 245 260 229 119 159 208 159 128 11 50 112 134 150 157 159 162 162 164 163 163 163 164 164 167 169 172 164 159 166 178 180 233
324 300 291 286 296 317 244 209 218 221 193 156 167 198 303 277 301 293 232 303 178 213 261 351 323 226 223 190 160 102 137 169 148 146 149 154 157 161 162 164 164 165 164 167 170 177 184 183 186 195 198 202 219 266
325 303 253 228 287 237 217 240 201 274 56 120 118 160 218 264 320 327 276 185 190 162 344 336 348 13 33 58 137 127 136 138 136 135 139 152 162 164 167 168 162 163 170 173 177 183 196 195 202 207 204 210 235 259
326 289 216 222 248 196 229 212 196 239 93 105 80 82 78 75 103 77 123 153 150 159 84 114 53 21 74 78 93 129 137 135 133 129 132 141 153 159 160 164 166 171 164 162 170 185 193 195 200 202 210 224 241 258
316 270 273 209 191 200 261 254 223 90 112 109 100 70 69 75 74 74 88 137 142 57 81 110 106 85 77 81 99 126 132 139 143 146 147 145 148 156 160 164 162 156 162 173 183 186 188 194 199 209 221 237 249 261
285 290 199 185 183 207 220 316 180 152 126 115 127 113 105 62 73 63 72 74 60 54 99 141 137 129 125 74 101 106 116 125 134 132 134 140 142 150 154 155 162 172 185 193 194 194 199 206 213 222 232 245 257 264
346 136 174 181 202 205 173 140 281 183 215 174 151 272 70 66 64 35 86 73 91 107 107 114 127 135 127 139 138 129 123 128 133 139 140 141 146 154 159 169 181 190 195 198 202 207 215 221 229 233 240 253 261 273
49 155 215 217 198 176 176 203 279 26 27 180 177 95 76 76 97 47 96 120 133 134 132 130 125 125 130 133 134 133 138 142 140 145 151 155 159 168 179 184 195 203 204 202 206 213 219 228 238 249 259 267 273 276
235 160 210 242 229 202 205 159 159 167 222 197 155 129 131 179 202 151 149 149 166 163 157 150 148 153 143 136 140 147 152 152 155 167 175 184 176 172 203 211 210 212 213 220 231 241 250 258 264 268 272 275 276 276
100 168 209 231 196 253 180 159 171 174 125 133 123 121 176 231 235 172 152 169 174 175 174 170 161 154 156 172 171 170 184 185 172 176 167 193 204 211 197 201 219 233 236 244 254 262 266 270 273 277 279 283 289 291
357 123 184 259 275 274 209 160 133 188 173 175 173 190 214 248 240 103 146 163 173 175 176 175 174 174 157 157 160 160 156 161 181 200 181 217 226 227 235 250 261 262 259 264 267 272 272 273 276 281 286 287 288 289
333 0 336 336 267 261 286 198 186 166 138 171 148 186 265 358 26 105 157 169 172 170 169 177 178 178 181 176 170 170 178 183 200 211 223 249 242 233 243 249 264 274 277 272 268 269 272 277 280 286 289 290 290 284
290 326 313 295 294 268 318 39 71 72 135 166 180 193 133 51 80 146 156 156 152 156 159 168 180 185 186 192 198 204 209 205 212 226 236 258 236 254 247 261 278 285 272 264 275 267 272 277 275 272 279 285 286 289
20 310 285 301 294 51 57 12 67 37 173 183 124 115 103 86 115 143 162 161 165 169 172 180 189 207 225 231 233 230 231 230 237 250 257 272 276 254 258 278 273 256 259 266 264 275 303 314 304 305 295 288 287 285
308 300 284 300 318 60 320 291 269 206 181 175 175 202 117 128 138 165 175 188 193 196 199 205 224 229 234 248 239 218 216 220 224 213 219 249 253 248 270 264 244 244 243 236 234 250 268 286 293 301 298 297 296 302
292 309 319 303 294 215 68 94 139 170 189 189 194 193 177 187 165 186 192 187 195 205 213 224 238 249 250 255 239 221 221 227 210 207 231 223 228 235 269 247 237 230 234 243 265 270 274 283 288 295 296 295 296 297
312 309 319 305 309 135 122 155 95 161 208 214 217 216 215 212 239 197 220 211 207 207 214 221 227 238 243 237 224 218 207 207 209 221 242 244 237 256 265 252 243 238 248 258 271 279 283 286 291 291 289 289 290 291
Height
1516 1513 1510 1508 1506 1505 1504 1504 1503 1501 1500 1499 1498 1496 1495 1494 1494 1494 1496 1494 1496 1493 1488 1488 1488 1487 1486 1485 1479 1485 1484 1483 1480 1476 1471 1465 1463 1460 1465 1470 1472 1477 1482 1481 1476 1487 1499 1511 1508 1505 1505 1507 1508 1514
1514 1511 1508 1506 1505 1504 1503 1502 1501 1500 1499 1497 1496 1495 1493 1493 1492 1493 1496 1494 1494 1494 1488 1486 1485 1486 1488 1489 1490 1486 1484 1483 1480 1474 1469 1460 1464 1460 1460 1476 1485 1487 1484 1478 1498 1500 1513 1511 1510 1510 1511 1514 1519 1524
1513 1509 1507 1505 1504 1503 1502 1501 1500 1499 1498 1497 1495 1494 1493 1492 1492 1493 1495 1495 1494 1493 1488 1486 1484 1485 1485 1485 1488 1488 1485 1486 1484 1485 1479 1472 1471 1472 1464 1465 1484 1493 1494 1491 1497 1515 1515 1516 1517 1519 1520 1523 1527 1530
1512 1509 1507 1505 1504 1503 1502 1501 1500 1499 1498 1497 1495 1494 1493 1493 1493 1494 1495 1495 1495 1494 1488 1480 1482 1484 1483 1484 1485 1487 1488 1488 1487 1485 1480 1473 1471 1479 1472 1475 1473 1489 1492 1497 1509 1517 1520 1523 1525 1527 1528 1530 1532 1534
1513 1510 1508 1506 1505 1504 1502 1501 1500 1498 1497 1496 1495 1494 1494 1493 1493 1493 1494 1494 1494 1497 1487 1481 1482 1482 1483 1484 1484 1485 1486 1487 1485 1482 1477 1477 1482 1481 1482 1480 1486 1494 1494 1490 1493 1511 1511 1524 1529 1531 1532 1533 1534 1536
1514 1511 1509 1507 1505 1504 1503 1501 1500 1498 1497 1495 1495 1494 1494 1493 1493 1493 1494 1493 1493 1492 1492 1477 1480 1482 1482 1482 1484 1484 1485 1486 1485 1480 1481 1485 1487 1484 1475 1482 1498 1499 1501 1501 1503 1514 1520 1526 1530 1532 1533 1535 1537 1539
1514 1511 1509 1507 1505 1504 1503 1502 1500 1498 1497 1496 1495 1495 1494 1494 1493 1494 1494 1493 1491 1490 1490 1480 1475 1481 1481 1482 1484 1485 1485 1485 1484 1484 1484 1484 1487 1485 1482 1486 1499 1501 1504 1507 1513 1517 1523 1528 1531 1534 1536 1537 1538 1540
1514 1511 1508 1506 1504 1503 1502 1501 1500 1498 1497 1496 1495 1494 1494 1493 1493 1493 1491 1491 1489 1490 1490 1483 1475 1478 1480 1479 1481 1483 1484 1484 1487 1486 1487 1486 1489 1488 1497 1503 1504 1507 1510 1514 1517 1519 1524 1528 1533 1536 1538 1540 1542 1543
1514 1511 1508 1505 1503 1502 1501 1500 1498 1497 1496 1495 1495 1494 1494 1493 1493 1492 1490 1489 1489 1492 1487 1485 1479 1472 1481 1480 1481 1482 1481 1484 1488 1487 1492 1492 1498 1497 1503 1507 1508 1512 1513 1517 1520 1524 1528 1532 1535 1539 1541 1542 1543 1544
1514 1510 1507 1504 1501 1500 1499 1498 1497 1496 1495 1494 1494 1494 1492 1493 1490 1490 1489 1490 1489 1489 1488 1485 1487 1480 1483 1477 1477 1478 1478 1484 1485 1492 1493 1500 1508 1507 1508 1510 1512 1514 1517 1520 1522 1528 1531 1534 1537 1540 1542 1544 1544 1546
1512 1509 1506 1503 1500 1498 1497 1496 1495 1494 1493 1493 1493 1493 1492 1490 1489 1490 1488 1487 1486 1485 1486 1487 1487 1485 1484 1481 1478 1477 1475 1480 1490 1488 1486 1495 1507 1508 1510 1512 1515 1518 1521 1524 1527 1530 1534 1537 1540 1542 1544 1545 1546 1546
1511 1508 1505 1502 1499 1497 1495 1494 1494 1493 1492 1492 1492 1492 1491 1491 1489 1487 1485 1486 1486 1486 1488 1486 1487 1487 1485 1484 1481 1478 1472 1474 1480 1483 1479 1495 1501 1509 1512 1516 1518 1521 1524 1527 1531 1533 1537 1539 1541 1543 1544 1545 1545 1545
1508 1505 1503 1501 1498 1496 1494 1492 1491 1491 1492 1492 1492 1492 1492 1491 1490 1484 1482 1487 1488 1490 1490 1489 1484 1485 1485 1484 1480 1478 1474 1477 1479 1476 1478 1487 1499 1507 1513 1517 1520 1524 1528 1530 1533 1536 1539 1541 1543 1544 1545 1545 1546 1547
1506 1503 1501 1499 1497 1495 1493 1492 1490 1490 1491 1492 1491 1495 1489 1486 1486 1489 1493 1492 1493 1491 1491 1490 1487 1483 1483 1481 1480 1478 1480 1478 1477 1480 1481 1488 1498 1505 1512 1517 1521 1526 1530 1532 1535 1537 1540 1542 1545 1546 1546 1547 1548 1549
1503 1501 1499 1498 1496 1494 1492 1491 1491 1490 1491 1492 1491 1493 1487 1489 1489 1491 1491 1491 1491 1490 1490 1488 1485 1484 1480 1480 1479 1479 1480 1476 1471 1470 1478 1489 1499 1507 1512 1517 1522 1524 1529 1532 1536 1538 1540 1544 1548 1547 1547 1548 1549 1550
1500 1499 1498 1496 1494 1492 1491 1491 1490 1490 1490 1491 1491 1488 1489 1488 1486 1487 1488 1488 1487 1488 1488 1488 1483 1480 1477 1477 1475 1473 1473 1472 1475 1480 1485 1493 1501 1508 1513 1518 1523 1527 1530 1534 1536 1540 1541 1545 1548 1547 1548 1549 1550 1551
1497 1496 1495 1494 1492 1491 1490 1490 1490 1491 1490 1491 1490 1490 1489 1489 1488 1487 1487 1487 1486 1488 1484 1483 1479 1478 1478 1474 1475 1475 1474 1481 1483 1485 1489 1495 1501 1508 1513 1519 1523 1528 1532 1534 1537 1540 1542 1546 1546 1547 1548 1549 1550 1550
1494 1493 1492 1491 1490 1490 1489 1489 1490 1489 1488 1489 1490 1489 1489 1488 1487 1487 1487 1486 1487 1486 1486 1483 1482 1477 1475 1475 1477 1484 1485 1485 1486 1489 1493 1499 1504 1509 1513 1518 1523 1527 1530 1533 1536 1539 1542 1543 1545 1546 1548 1549 1549 1549
1491 1489 1489 1489 1489 1488 1489 1488 1488 1486 1486 1486 1487 1487 1487 1487 1486 1485 1485 1485 1486 1486 1487 1486 1484 1481 1482 1483 1483 1484 1485 1487 1490 1494 1498 1503 1507 1512 1515 1518 1522 1526 1529 1532 1535 1538 1540 1541 1543 1544 1546 1546 1547 1546
1488 1487 1487 1487 1487 1487 1487 1487 1486 1486 1485 1487 1486 1487 1486 1486 1486 1485 1484 1484 1485 1486 1486 1486 1488 1488 1486 1486 1486 1487 1489 1491 1494 1498 1503 1507 1511 1514 1517 1520 1523 1527 1530 1532 1535 1537 1539 1540 1542 1543 1544 1544 1544 1544
1487 1487 1486 1487 1487 1487 1486 1485 1485 1485 1485 1486 1487 1486 1485 1486 1485 1485 1485 1485 1485 1485 1489 1490 1489 1490 1490 1490 1490 1493 1494 1496 1499 1502 1505 1509 1513 1516 1519 1522 1524 1528 1530 1532 1534 1536 1537 1538 1539 1540 1541 1541 1541 1541
1486 1486 1485 1486 1487 1487 1486 1485 1485 1485 1486 1485 1485 1486 1485 1485 1485 1486 1486 1486 1489 1490 1491 1491 1492 1493 1494 1495 1496 1497 1499 1500 1503 1506 1509 1511 1514 1517 1519 1522 1525 1527 1529 1531 1533 1534 1536 1537 1537 1538 1538 1538 1538 1537
1485 1485 1485 1485 1486 1486 1487 1485 1485 1485 1484 1484 1485 1484 1485 1486 1487 1488 1488 1490 1493 1493 1494 1495 1495 1496 1497 1499 1500 1502 1503 1505 1507 1510 1512 1514 1516 1519 1521 1523 1525 1527 1528 1530 1531 1532 1533 1534 1534 1535 1535 1535 1534 1533
1484 1485 1485 1485 1484 1484 1485 1484 1484 1484 1484 1484 1483 1482 1484 1486 1488 1487 1487 1490 1493 1495 1496 1497 1499 1500 1502 1503 1504 1505 1507 1509 1511 1513 1514 1516 1517 1520 1521 1522 1524 1525 1526 1528 1529 1530 1531 1531 1531 1531 1531 1530 1530 1528
1486 1485 1485 1483 1482 1482 1480 1481 1484 1485 1483 1481 1481 1482 1484 1487 1484 1485 1485 1490 1493 1495 1497 1499 1500 1501 1502 1503 1506 1508 1508 1510 1511 1513 1515 1515 1516 1518 1520 1521 1522 1523 1524 1525 1526 1527 1527 1527 1527 1526 1525 1524 1523 1522
1484 1483 1483 1478 1478 1478 1476 1476 1478 1479 1479 1481 1480 1483 1485 1483 1483 1482 1484 1488 1491 1494 1496 1498 1500 1502 1503 1504 1506 1508 1509 1511 1512 1511 1513 1515 1515 1516 1516 1518 1519 1519 1520 1522 1522 1522 1522 1521 1521 1520 1519 1518 1516 1514
1482 1480 1481 1480 1479 1478 1477 1477 1478 1478 1479 1480 1482 1483 1481 1480 1479 1481 1485 1487 1489 1492 1495 1498 1500 1501 1502 1505 1506 1508 1509 1510 1511 1512 1512 1513 1514 1515 1516 1516 1516 1516 1516 1517 1517 1517 1516 1516 1515 1514 1513 1512 1510 1509
1482 1481 1479 1480 1478 1477 1475 1476 1476 1475 1478 1480 1481 1482 1480 1477 1478 1483 1484 1487 1489 1491 1495 1498 1500 1502 1503 1505 1506 1508 1509 1510 1510 1511 1512 1512 1512 1513 1513 1513 1513 1513 1513 1512 1512 1512 1512 1511 1510 1509 1508 1506 1505 1503
1481 1481 1481 1478 1477 1476 1476 1476 1477 1478 1479 1480 1480 1479 1480 1481 1482 1483 1484 1486 1489 1492 1495 1498 1500 1501 1503 1504 1505 1506 1507 1508 1509 1510 1510 1509 1509 1511 1510 1511 1511 1510 1509 1508 1506 1506 1506 1505 1505 1505 1504 1503 1502 1500
1480 1479 1479 1477 1476 1474 1478 1478 1479 1479 1480 1480 1480 1481 1482 1482 1483 1483 1485 1488 1491 1493 1495 1496 1497 1499 1500 1501 1502 1503 1504 1505 1505 1506 1506 1506 1507 1507 1508 1507 1507 1506 1506 1506 1505 1504 1502 1502 1502 1502 1501 1500 1499 1498
1480 1479 1478 1477 1476 1477 1477 1477 1477 1478 1478 1479 1480 1481 1480 1483 1484 1485 1486 1488 1490 1492 1493 1495 1496 1496 1497 1497 1498 1499 1500 1501 1502 1503 1504 1505 1505 1505 1505 1504 1504 1504 1503 1503 1503 1503 1502 1501 1500 1499 1498 1497 1496 1495
1479 1479 1479 1475 1476 1477 1476 1477 1477 1478 1478 1479 1479 1480 1482 1482 1482 1484 1484 1486 1488 1490 1491 1492 1493 1493 1493 1494 1495 1496 1496 1498 1499 1500 1501 1502 1503 1502 1502 1502 1502 1502 1501 1501 1501 1500 1500 1499 1498 1497 1496 1495 1494 1492
1478 1478 1477 1476 1475 1475 1476 1477 1477 1477 1478 1477 1478 1478 1479 1481 1480 1481 1481 1482 1485 1487 1488 1489 1490 1491 1491 1492 1493 1493 1494 1496 1496 1497 1498 1499 1499 1500 1500 1500 1500 1499 1499 1499 1498 1498 1497 1496 1495 1494 1493 1492 1490 1489